Weather History for Flippin, AR

Change the Weather History Date:

Sunday, November 3, 2013

  Actual Average Record
Temperature  
Mean Temperature 45 °F -  
Max Temperature 60 °F 62 °F 82 °F (2003)
Min Temperature 30 °F 43 °F 24 °F (1996)
Degree Days  
Heating Degree Days 20    
Moisture  
Dew Point 31 °F    
Average Humidity 57    
Maximum Humidity 80    
Minimum Humidity 31    
Precipitation  
Precipitation 0.00 in - - ()
Sea Level Pressure  
Sea Level Pressure 30.20 in    
Wind  
Wind Speed 2 mph (SE)    
Max Wind Speed 9 mph    
Max Gust Speed -    
Visibility 8 miles    
Events      
Averages and records for this station are not official NWS values.
T = Trace of Precipitation, MM = Missing Value Source: NWS Daily Summary

Daily Weather History Graph

Daily Weather History Graph

Search for Another Location

Airport:

Trip Planner

Search our weather history database for the weather conditions in past years. The results will help you decide how hot, cold, wet, or windy it might be!

Date:

Astronomy

Nov. 03, 2013 Rise Set
Actual Time 6:35 AM CST 5:11 PM CST
Civil Twilight 6:08 AM CST 5:38 PM CST
Nautical Twilight 5:38 AM CST 6:08 PM CST
Astronomical Twilight 5:08 AM CST 6:39 PM CST
Moon 6:39 AM CST (11/3) 5:28 PM CST (11/3)
Length of Visible Light 11h 29m
Length of Day
10h 36m
New Moon, 0% of the Moon is Illuminated
Nov 3
New Moon
Nov 9
First Quarter
Nov 17
Full
Nov 25
Last Quarter
Dec 2
New

Hourly Weather History & Observations

Time (CST) Temp. Windchill Dew Point Humidity Pressure Visibility Wind Dir Wind Speed Gust Speed Precip Events Conditions
12:15 AM 37.4 °F - 28.4 °F 70% 30.21 in 10.0 mi Calm Calm - N/A   Clear
12:35 AM 37.4 °F - 28.4 °F 70% 30.21 in 8.0 mi Calm Calm - N/A   Clear
12:55 AM 37.4 °F - 28.4 °F 70% 30.21 in 10.0 mi Calm Calm - N/A   Clear
1:15 AM 37.4 °F - 28.4 °F 70% 30.21 in 10.0 mi Calm Calm - N/A   Clear
1:35 AM 37.4 °F - 28.4 °F 70% 30.22 in 10.0 mi Calm Calm - N/A   Clear
1:55 AM 35.6 °F - 28.4 °F 75% 30.22 in 9.0 mi Calm Calm - N/A   Clear
1:15 AM 35.6 °F - 26.6 °F 70% 30.22 in 2.0 mi Calm Calm - N/A   Clear
1:35 AM 35.6 °F - 28.4 °F 75% 30.23 in 1.8 mi Calm Calm - N/A   Clear
1:55 AM 35.6 °F - 26.6 °F 70% 30.23 in 10.0 mi Calm Calm - N/A   Clear
2:15 AM 33.8 °F - 26.6 °F 75% 30.23 in 9.0 mi Calm Calm - N/A   Clear
2:35 AM 33.8 °F - 26.6 °F 75% 30.24 in 9.0 mi Calm Calm - N/A   Clear
2:55 AM 33.8 °F - 26.6 °F 75% 30.23 in 10.0 mi Calm Calm - N/A   Clear
3:15 AM 33.8 °F - 26.6 °F 75% 30.23 in 0.2 mi Calm Calm - N/A   Mostly Cloudy
3:35 AM 33.8 °F - 24.8 °F 70% 30.23 in 0.5 mi Calm Calm - N/A   Mostly Cloudy
3:55 AM 33.8 °F - 26.6 °F 75% 30.24 in 0.8 mi Calm Calm - N/A   Mostly Cloudy
4:15 AM 32.0 °F - 24.8 °F 75% 30.24 in 5.0 mi Calm Calm - N/A   Partly Cloudy
4:35 AM 32.0 °F - 24.8 °F 75% 30.24 in 0.2 mi Calm Calm - N/A   Overcast
4:55 AM 33.8 °F 30.8 °F 26.6 °F 75% 30.25 in 0.2 mi NE 3.5 mph - N/A   Overcast
5:15 AM 33.8 °F - 26.6 °F 75% 30.25 in 0.2 mi Calm Calm - N/A   Overcast
5:35 AM 32.0 °F - 24.8 °F 75% 30.24 in 0.5 mi Calm Calm - N/A   Overcast
5:55 AM 32.0 °F - 24.8 °F 75% 30.24 in 0.2 mi Calm Calm - N/A   Overcast
6:15 AM 32.0 °F - 24.8 °F 75% 30.25 in 0.2 mi Calm Calm - N/A   Overcast
6:35 AM 32.0 °F - 24.8 °F 75% 30.25 in 0.2 mi Calm Calm - N/A   Overcast
6:55 AM 30.2 °F - 24.8 °F 80% 30.26 in 0.5 mi Calm Calm - N/A   Mostly Cloudy
7:15 AM 32.0 °F - 24.8 °F 75% 30.26 in 1.5 mi Calm Calm - N/A   Scattered Clouds
7:35 AM 33.8 °F - 26.6 °F 75% 30.27 in 10.0 mi Calm Calm - N/A   Clear
7:55 AM 35.6 °F - 28.4 °F 75% 30.28 in 10.0 mi Calm Calm - N/A   Clear
8:15 AM 37.4 °F - 30.2 °F 75% 30.28 in 10.0 mi Calm Calm - N/A   Clear
8:35 AM 39.2 °F - 30.2 °F 70% 30.29 in 10.0 mi Calm Calm - N/A   Clear
8:55 AM 39.2 °F - 32.0 °F 75% 30.29 in 10.0 mi Calm Calm - N/A   Clear
9:15 AM 42.8 °F - 33.8 °F 70% 30.29 in 10.0 mi Calm Calm - N/A   Clear
9:35 AM 44.6 °F 43.1 °F 33.8 °F 66% 30.28 in 10.0 mi ESE 3.5 mph - N/A   Clear
9:55 AM 46.4 °F 45.2 °F 33.8 °F 62% 30.28 in 10.0 mi SE 3.5 mph - N/A   Clear
10:15 AM 50.0 °F - 35.6 °F 58% 30.28 in 10.0 mi SE 6.9 mph - N/A   Clear
10:35 AM 51.8 °F - 33.8 °F 50% 30.26 in 10.0 mi ESE 6.9 mph - N/A   Clear
10:55 AM 53.6 °F - 35.6 °F 51% 30.25 in 10.0 mi ESE 6.9 mph - N/A   Clear
11:15 AM 55.4 °F - 32.0 °F 41% 30.24 in 10.0 mi South 9.2 mph - N/A   Clear
11:35 AM 55.4 °F - 33.8 °F 44% 30.22 in 10.0 mi SSE 9.2 mph - N/A   Clear
11:55 AM 57.2 °F - 33.8 °F 41% 30.21 in 5.0 mi SSE 8.1 mph - N/A   Clear
12:15 PM 59.0 °F - 33.8 °F 39% 30.19 in 8.0 mi SSW 3.5 mph - N/A   Clear
12:35 PM 59.0 °F - 30.2 °F 34% 30.18 in 5.0 mi South 6.9 mph - N/A   Clear
12:55 PM 60.8 °F - 32.0 °F 34% 30.17 in 10.0 mi South 8.1 mph - N/A   Clear
1:15 PM 60.8 °F - 30.2 °F 31% 30.16 in 10.0 mi SSE 6.9 mph - N/A   Clear
1:35 PM 60.8 °F - 32.0 °F 34% 30.15 in 9.0 mi ESE 9.2 mph - N/A   Clear
1:55 PM 60.8 °F - 33.8 °F 36% 30.13 in 10.0 mi SE 6.9 mph - N/A   Clear
2:15 PM 60.8 °F - 32.0 °F 34% 30.12 in 10.0 mi SE 8.1 mph - N/A   Clear
2:35 PM 60.8 °F - 33.8 °F 36% 30.12 in 10.0 mi ESE 8.1 mph - N/A   Clear
2:55 PM 60.8 °F - 33.8 °F 36% 30.12 in 10.0 mi SE 6.9 mph - N/A   Clear
3:15 PM 60.8 °F - 33.8 °F 36% 30.12 in 10.0 mi SE 8.1 mph - N/A   Clear
3:35 PM 59.0 °F - 32.0 °F 36% 30.12 in 10.0 mi SSE 6.9 mph - N/A   Clear
3:55 PM 59.0 °F - 33.8 °F 39% 30.12 in 10.0 mi SSE 5.8 mph - N/A   Clear
4:15 PM 57.2 °F - 32.0 °F 38% 30.12 in 10.0 mi SSE 6.9 mph - N/A   Clear
4:35 PM 57.2 °F - 32.0 °F 38% 30.12 in 10.0 mi SE 5.8 mph - N/A   Clear
4:55 PM 57.2 °F - 32.0 °F 38% 30.11 in 10.0 mi SE 6.9 mph - N/A   Clear
5:15 PM 55.4 °F - 32.0 °F 41% 30.09 in 10.0 mi SE 5.8 mph - N/A   Clear
5:35 PM 55.4 °F - 33.8 °F 44% 30.13 in 10.0 mi SSE 4.6 mph - N/A   Clear
5:55 PM 55.4 °F - 32.0 °F 41% 30.13 in 10.0 mi SSE 5.8 mph - N/A   Clear
6:15 PM 53.6 °F - 33.8 °F 47% 30.13 in 10.0 mi SE 4.6 mph - N/A   Clear
6:35 PM 53.6 °F - 33.8 °F 47% 30.15 in 10.0 mi SSE 5.8 mph - N/A   Clear
6:55 PM 53.6 °F - 33.8 °F 47% 30.15 in 10.0 mi SSE 3.5 mph - N/A   Clear
7:15 PM 53.6 °F - 33.8 °F 47% 30.14 in 10.0 mi SE 4.6 mph - N/A   Clear
7:35 PM 53.6 °F - 33.8 °F 47% 30.12 in 10.0 mi SE 5.8 mph - N/A   Clear
7:55 PM 53.6 °F - 33.8 °F 47% 30.14 in 10.0 mi SE 4.6 mph - N/A   Clear
8:15 PM 53.6 °F - 33.8 °F 47% 30.15 in 10.0 mi SE 4.6 mph - N/A   Clear
8:35 PM 51.8 °F - 33.8 °F 50% 30.14 in 10.0 mi SE 5.8 mph - N/A   Clear
8:55 PM 51.8 °F - 33.8 °F 50% 30.12 in 10.0 mi SE 6.9 mph - N/A   Clear
9:15 PM 51.8 °F - 33.8 °F 50% 30.14 in 10.0 mi SE 4.6 mph - N/A   Clear
9:35 PM 51.8 °F - 33.8 °F 50% 30.14 in 10.0 mi SE 8.1 mph - N/A   Clear
9:55 PM 51.8 °F - 33.8 °F 50% 30.14 in 10.0 mi SE 5.8 mph - N/A   Clear
10:15 PM 51.8 °F - 33.8 °F 50% 30.15 in 10.0 mi SE 4.6 mph - N/A   Clear
10:35 PM 51.8 °F - 33.8 °F 50% 30.16 in 10.0 mi Calm Calm - N/A   Clear
10:55 PM 51.8 °F - 33.8 °F 50% 30.15 in 10.0 mi SE 4.6 mph - N/A   Clear